EW1361 Okeechobee FL US current weather conditions

sailwx.info

Wind from 243 at 0 knots gusting 2

Air temperature 17.2° C
Dewpoint -39.5° C

Last reported at 2020-Jan-25 13:01 UTC.
Time now 2020-Jan-25 13:24 UTC

Location: N 27°08' W 080°53'.
View on Google Maps.

See reports from other nearby stations

  
Tides and Currents Weather Stations Pressure Air Temp Water Temp Dewpoint Dewpoint Depression Visibility Wind Speed Wind Dir Waves Ship Positions
date/time (UTC)wind fromknots sea level pressurealtimeterstation pressurevisibilityair tempwater tempwave heightnotes
2020-Jan-25 13:01 243 0 gusting 2 17.2
2020-Jan-25 12:47 238 0 gusting 3 16.7
2020-Jan-25 12:32 213 0 gusting 3 16.7
2020-Jan-25 12:18 147 0 gusting 2 16.7
2020-Jan-25 12:02 159 16.1
2020-Jan-25 11:46 164 16.1
2020-Jan-25 11:31 156 0 gusting 2 15.6
2020-Jan-25 11:15 204 0 gusting 2 15.6
2020-Jan-25 11:01 208 0 gusting 2 15.6
2020-Jan-25 10:46 148 15.6
2020-Jan-25 10:30 096 15.6
2020-Jan-25 10:16 096 15.6
2020-Jan-25 10:00 096 15.6
2020-Jan-25 09:45 096 15.6
2020-Jan-25 09:30 108 16.1
2020-Jan-25 09:15 099 16.1
2020-Jan-25 09:00 107 16.1
2020-Jan-25 08:47 109 16.1
2020-Jan-25 08:31 114 16.7
2020-Jan-25 08:16 113 16.7
2020-Jan-25 08:00 114 16.7
2020-Jan-25 07:46 107 16.1
2020-Jan-25 07:32 107 16.1
2020-Jan-25 07:16 124 0 gusting 1 16.1
2020-Jan-25 07:01 076 16.1
2020-Jan-25 06:45 110 16.7
2020-Jan-25 06:30 104 17.2
2020-Jan-25 06:15 104 17.2
2020-Jan-25 06:03 131 17.2
2020-Jan-25 05:47 131 17.8
2020-Jan-25 05:32 131 17.8
2020-Jan-25 05:16 195 17.8
2020-Jan-25 05:01 195 18.3
2020-Jan-25 04:46 200 18.3
2020-Jan-25 04:32 104 18.9
2020-Jan-25 04:16 104 18.9
2020-Jan-25 04:01 104 18.9
2020-Jan-25 03:45 104 18.9
2020-Jan-25 03:30 110 18.9
2020-Jan-25 03:16 120 18.9
2020-Jan-25 03:00 060 1 gusting 6 18.9
2020-Jan-25 02:45 043 18.9
2020-Jan-25 02:30 043 18.3
2020-Jan-25 02:18 048 18.3
2020-Jan-25 02:01 048 18.9
2020-Jan-25 01:50 047 18.9
2020-Jan-25 01:31 057 0 gusting 2 18.9
2020-Jan-25 01:16 027 0 gusting 1 18.9
2020-Jan-25 01:01 041 18.9
2020-Jan-25 00:46 349 19.4
2020-Jan-25 00:32 007 19.4
2020-Jan-25 00:15 039 0 gusting 2 19.4
2020-Jan-25 00:00 042 0 gusting 2 19.4
2020-Jan-24 23:45 004 20.0
2020-Jan-24 23:30 026 20.6
2020-Jan-24 23:15 016 0 gusting 3 20.6
2020-Jan-24 23:00 335 0 gusting 1 21.1
2020-Jan-24 22:45 027 21.7
2020-Jan-24 22:17 046 1 gusting 4 22.2
2020-Jan-24 22:02 029 1 gusting 6 22.2
2020-Jan-24 21:48 335 1 gusting 5 22.8
2020-Jan-24 21:16 330 2 gusting 6 22.8
2020-Jan-24 21:02 041 1 gusting 5 22.8
2020-Jan-24 20:46 054 2 gusting 5 22.8
2020-Jan-24 20:16 038 2 gusting 5 22.8
2020-Jan-24 20:00 048 2 gusting 6 22.8
2020-Jan-24 19:46 023 1 gusting 5 22.2
2020-Jan-24 19:15 048 2 gusting 6 22.2
2020-Jan-24 19:00 065 1 gusting 4 22.8
2020-Jan-24 18:48 058 2 gusting 6 22.2
2020-Jan-24 18:17 056 4 gusting 6 22.2
2020-Jan-24 18:02 066 2 gusting 6 22.2
2020-Jan-24 17:47 023 2 gusting 6 22.2
2020-Jan-24 17:16 292 0 gusting 5 21.1
2020-Jan-24 17:02 349 1 gusting 4 20.6
2020-Jan-24 16:46 351 1 gusting 4 20.6
2020-Jan-24 16:15 030 2 gusting 5 20.0
2020-Jan-24 16:00 037 1 gusting 5 20.0
2020-Jan-24 15:45 027 1 gusting 5 19.4
2020-Jan-24 15:15 023 3 gusting 6 19.4
2020-Jan-24 15:03 302 1 gusting 6 18.9
2020-Jan-24 14:47 330 1 gusting 5 18.3
2020-Jan-24 14:17 272 1 gusting 4 18.3
2020-Jan-24 14:02 288 0 gusting 5 17.8
2020-Jan-24 13:47 342 0 gusting 4 17.8
2020-Jan-24 13:18 341 0 gusting 4 17.8
2020-Jan-24 13:01 339 0 gusting 3 17.8
2020-Jan-24 12:45 040 17.2
2020-Jan-24 12:15 011 0 gusting 4 17.2
2020-Jan-24 12:00 287 17.2
2020-Jan-24 11:45 323 17.2
2020-Jan-24 11:15 353 0 gusting 2 17.2
2020-Jan-24 11:01 026 0 gusting 4 17.2
2020-Jan-24 10:46 037 0 gusting 3 17.2
2020-Jan-24 10:17 057 17.2
2020-Jan-24 10:02 349 1 gusting 4 17.2
2020-Jan-24 09:46 330 1 gusting 6 17.2
2020-Jan-24 09:15 049 17.2
2020-Jan-24 09:01 064 17.2
2020-Jan-24 08:46 359 17.2
2020-Jan-24 08:15 105 17.2
2020-Jan-24 08:01 036 16.7
2020-Jan-24 07:45 034 16.1
2020-Jan-24 07:18 034 16.1
2020-Jan-24 07:01 034 16.1
2020-Jan-24 06:46 032 16.1
2020-Jan-24 06:32 032 16.1
2020-Jan-24 06:16 063 16.1
2020-Jan-24 06:01 059 16.1
2020-Jan-24 05:31 065 16.1
2020-Jan-24 05:18 065 16.1
2020-Jan-24 05:00 066 0 gusting 1 16.1
2020-Jan-24 04:46 052 16.1
2020-Jan-24 04:30 285 16.1
2020-Jan-24 04:15 283 16.7
2020-Jan-24 04:00 276 16.7
2020-Jan-24 03:45 290 0 gusting 5 16.7
2020-Jan-24 03:31 302 16.7
2020-Jan-24 03:19 285 16.7
2020-Jan-24 03:02 344 17.2
2020-Jan-24 02:46 336 17.2
2020-Jan-24 02:31 297 0 gusting 4 17.2
2020-Jan-24 02:16 293 0 gusting 6 17.2
2020-Jan-24 02:02 307 0 gusting 4 17.2
2020-Jan-24 01:46 278 1 gusting 5 17.2
2020-Jan-24 01:30 300 1 gusting 4 17.2
2020-Jan-24 01:16 287 0 gusting 5 17.2
2020-Jan-24 01:00 311 1 gusting 6 17.2
2020-Jan-24 00:45 281 2 gusting 5 17.2
2020-Jan-24 00:30 355 17.2
2020-Jan-24 00:16 328 0 gusting 5 17.8
2020-Jan-24 00:00 278 2 gusting 5 17.8
2020-Jan-23 23:46 287 1 gusting 4 17.8
2020-Jan-23 23:32 302 2 gusting 6 18.3
2020-Jan-23 23:18 290 1 gusting 4 18.9
2020-Jan-23 23:03 275 2 gusting 6 18.9
2020-Jan-23 22:45 251 1 gusting 4 19.4
2020-Jan-23 22:31 287 1 gusting 3 20.0
2020-Jan-23 22:16 282 0 gusting 2 20.0
2020-Jan-23 22:01 290 1 gusting 4 20.6
2020-Jan-23 21:46 307 0 gusting 3 20.6
2020-Jan-23 21:31 283 20.6
2020-Jan-23 21:15 359 0 gusting 2 21.1
2020-Jan-23 21:00 357 0 gusting 3 21.7
2020-Jan-23 20:45 330 1 gusting 6 21.7
2020-Jan-23 20:30 345 3 gusting 7 22.2
2020-Jan-23 20:15 283 2 gusting 6 21.7
2020-Jan-23 20:02 317 1 gusting 5 21.7
2020-Jan-23 19:46 329 1 gusting 6 21.7
2020-Jan-23 19:32 266 2 gusting 6 21.1
2020-Jan-23 19:16 292 2 gusting 6 21.1
2020-Jan-23 19:02 275 2 gusting 5 20.6
2020-Jan-23 18:47 282 2 gusting 5 20.0
2020-Jan-23 18:32 004 2 gusting 6 19.4
2020-Jan-23 18:16 277 4 gusting 9 20.6
2020-Jan-23 18:01 295 2 gusting 6 21.7
2020-Jan-23 17:45 340 3 gusting 7 20.6
2020-Jan-23 17:30 288 2 gusting 4 19.4
2020-Jan-23 17:15 276 1 gusting 4 18.9
2020-Jan-23 17:00 293 1 gusting 5 19.4
2020-Jan-23 16:45 340 1 gusting 7 20.0
2020-Jan-23 16:30 089 20.0
2020-Jan-23 16:18 217 0 gusting 3 18.9
2020-Jan-23 16:02 257 1 gusting 5 17.8
2020-Jan-23 15:46 283 2 gusting 6 17.8
2020-Jan-23 15:31 262 1 gusting 6 16.7
2020-Jan-23 15:16 225 1 gusting 5 15.6
2020-Jan-23 15:02 264 3 gusting 7 15.0
2020-Jan-23 14:46 273 2 gusting 4 13.9
2020-Jan-23 14:31 265 4 gusting 7 13.3
2020-Jan-23 14:15 322 4 gusting 8 12.8
2020-Jan-23 14:01 266 3 gusting 6 12.8
2020-Jan-23 13:46 274 2 gusting 6 12.2
2020-Jan-23 13:30 233 2 gusting 9 12.2
2020-Jan-23 13:15 260 4 gusting 7 11.7
2020-Jan-23 13:00 263 4 gusting 7 11.7